User: anonymous   Login
Location: Caltech
(34.1382°N, 118.1253°W)
Time: 16:15:54
(UTC-07:00)
Language:

Cosmos 2322 - Orbit

View from above orbital plane
View from above orbital plane
View from above satellite
View from above satellite

Ground track
Ground track

The orbit data is extracted from the following two-line orbital elements,

1 23704U 95058A   15115.49629685  .00000154  00000-0  10745-3 0  9995
2 23704 070.9840 246.3012 0010915 207.2049 218.7916 14.13301897  5112
Epoch (UTC): 25 April 2015 11:54:40
Eccentricity: 0.0010915
inclination: 70.9840°
perigee height: 840 km
apogee height: 856 km
right ascension of ascending node: 246.3012°
argument of perigee: 207.2049°
revolutions per day: 14.13301897
mean anomaly at epoch: 218.7916°
orbit number at epoch: 511

The dashed part of the orbit path shows where the satellite is in the earth's shadow,  

DLR